Weather History for Crockett, TX

Change the Weather History Date:

Tuesday, April 23, 2013

  Actual Average (KLFK) Record (KLFK)
Temperature  
Mean Temperature 66 °F 68 °F  
Max Temperature 80 °F 80 °F 91 °F (1999)
Min Temperature 53 °F 57 °F 40 °F (1907)
Degree Days  
Heating Degree Days 0 1  
Month to date heating degree days 63  
Since 1 July heating degree days 1907  
Cooling Degree Days 2 5  
Month to date cooling degree days 80  
Year to date cooling degree days 140  
Growing Degree Days 16 (Base 50)    
Moisture  
Dew Point 59 °F    
Average Humidity 78    
Maximum Humidity 94    
Minimum Humidity 54    
Precipitation  
Precipitation 0.00 in 0.11 in 1.51 in (1948)
Month to date precipitation 2.29  
Year to date precipitation 14.12  
Snow  
Snow 0.00 in - - ()
Month to date snowfall  
Since 1 July snowfall  
Snow Depth -    
Sea Level Pressure  
Sea Level Pressure 29.99 in    
Wind  
Wind Speed 6 mph (SSW)    
Max Wind Speed 10 mph    
Max Gust Speed 20 mph    
Visibility 9 miles    
Events      
T = Trace of Precipitation, MM = Missing Value Source: NWS Daily Summary

Daily Weather History Graph

Daily Weather History Graph

Search for Another Location

Airport:

Trip Planner

Search our weather history database for the weather conditions in past years. The results will help you decide how hot, cold, wet, or windy it might be!

Date:

Astronomy

Apr. 23, 2013 Rise Set
Actual Time 6:44 AM CDT 7:55 PM CDT
Civil Twilight 6:19 AM CDT 8:21 PM CDT
Nautical Twilight 5:49 AM CDT 8:51 PM CDT
Astronomical Twilight 5:17 AM CDT 9:22 PM CDT
Moon 5:58 PM CDT (4/23) 5:04 AM CDT (4/23)
Length of Visible Light 14h 02m
Length of Day
13h 11m
Waxing Gibbous, 94% of the Moon is Illuminated
Apr 23
Waxing Gibbous
Apr 25
Full
May 2
Last Quarter
May 9
New
May 17
First Quarter

Hourly Weather History & Observations

Time (CDT) Temp. Heat Index Dew Point Humidity Pressure Visibility Wind Dir Wind Speed Gust Speed Precip Events Conditions
12:15 AM 64.4 °F - 57.2 °F 77% 29.99 in 10.0 mi SSE 6.9 mph - N/A   Clear
12:35 AM 62.6 °F - 57.2 °F 82% 29.99 in 10.0 mi SSE 5.8 mph - N/A   Clear
12:55 AM 62.6 °F - 57.2 °F 82% 29.99 in 10.0 mi South 4.6 mph - N/A   Clear
1:15 AM 60.8 °F - 57.2 °F 88% 29.99 in 10.0 mi South 4.6 mph - N/A   Clear
1:35 AM 60.8 °F - 57.2 °F 88% 29.98 in 10.0 mi SSE 5.8 mph - N/A   Clear
1:55 AM 60.8 °F - 57.2 °F 88% 29.98 in 10.0 mi SSE 5.8 mph - N/A   Clear
2:15 AM 60.8 °F - 57.2 °F 88% 29.97 in 9.0 mi SE 5.8 mph - N/A   Clear
2:35 AM 60.8 °F - 57.2 °F 88% 29.96 in 10.0 mi SSE 5.8 mph - N/A   Scattered Clouds
2:55 AM 60.8 °F - 59.0 °F 94% 29.97 in 9.0 mi SSE 4.6 mph - N/A   Overcast
3:15 AM 62.6 °F - 59.0 °F 88% 29.96 in 10.0 mi South 6.9 mph - N/A   Overcast
3:35 AM 62.6 °F - 59.0 °F 88% 29.95 in 10.0 mi South 8.1 mph - N/A   Overcast
3:55 AM 62.6 °F - 59.0 °F 88% 29.95 in 9.0 mi South 10.4 mph - N/A   Overcast
4:15 AM 62.6 °F - 59.0 °F 88% 29.95 in 9.0 mi South 8.1 mph - N/A   Overcast
4:35 AM 62.6 °F - 59.0 °F 88% 29.94 in 10.0 mi SSE 9.2 mph - N/A   Overcast
5:15 AM 60.8 °F - 59.0 °F 94% 29.95 in 8.0 mi South 6.9 mph - N/A   Mostly Cloudy
5:35 AM 60.8 °F - 59.0 °F 94% 29.94 in 8.0 mi South 6.9 mph - N/A   Mostly Cloudy
5:55 AM 60.8 °F - 59.0 °F 94% 29.95 in 8.0 mi South 8.1 mph - N/A   Overcast
6:15 AM 62.6 °F - 60.8 °F 94% 29.95 in 8.0 mi South 10.4 mph - N/A   Overcast
6:35 AM 62.6 °F - 60.8 °F 94% 29.95 in 8.0 mi South 10.4 mph - N/A   Overcast
6:55 AM 62.6 °F - 60.8 °F 94% 29.96 in 5.0 mi South 9.2 mph - N/A   Overcast
7:15 AM 62.6 °F - 60.8 °F 94% 29.96 in 5.0 mi South 9.2 mph - N/A   Mostly Cloudy
7:35 AM 62.6 °F - 60.8 °F 94% 29.97 in 5.0 mi SSE 8.1 mph 16.1 mph N/A   Overcast
7:55 AM 62.6 °F - 60.8 °F 94% 29.97 in 5.0 mi South 9.2 mph 16.1 mph N/A   Overcast
8:15 AM 62.6 °F - 60.8 °F 94% 29.98 in 5.0 mi South 10.4 mph 16.1 mph N/A   Overcast
8:35 AM 62.6 °F - 60.8 °F 94% 29.99 in 5.0 mi South 10.4 mph 19.6 mph N/A   Overcast
8:55 AM 64.4 °F - 60.8 °F 88% 30.00 in 7.0 mi South 8.1 mph - N/A   Overcast
9:15 AM 66.2 °F - 60.8 °F 83% 30.02 in 8.0 mi South 10.4 mph - N/A   Overcast
9:35 AM 64.4 °F - 60.8 °F 88% 30.05 in 8.0 mi South 5.8 mph - N/A   Overcast
9:55 AM 66.2 °F - 62.6 °F 88% 30.05 in 7.0 mi Calm Calm - N/A   Overcast
10:15 AM 66.2 °F - 62.6 °F 88% 30.05 in 5.0 mi Calm Calm - N/A   Haze
10:35 AM 69.8 °F - 62.6 °F 78% 30.05 in 6.0 mi Calm Calm - N/A   Haze
10:55 AM 69.8 °F - 62.6 °F 78% 30.05 in 7.0 mi South 5.8 mph - N/A   Partly Cloudy
11:15 AM 71.6 °F - 62.6 °F 73% 30.04 in 8.0 mi South 8.1 mph - N/A   Clear
11:35 AM 71.6 °F - 62.6 °F 73% 30.04 in 7.0 mi South 6.9 mph - N/A   Clear
11:55 AM 73.4 °F - 62.6 °F 69% 30.03 in 8.0 mi SSW 3.5 mph - N/A   Clear
12:15 PM 73.4 °F - 62.6 °F 69% 30.03 in 8.0 mi SSW 5.8 mph - N/A   Partly Cloudy
12:35 PM 73.4 °F - 62.6 °F 69% 30.02 in 9.0 mi South 5.8 mph - N/A   Scattered Clouds
12:55 PM 75.2 °F - 62.6 °F 65% 30.01 in 9.0 mi Calm Calm - N/A   Partly Cloudy
1:15 PM 77.0 °F - 62.6 °F 61% 30.00 in 8.0 mi South 5.8 mph - N/A   Scattered Clouds
1:35 PM 77.0 °F - 60.8 °F 57% 29.99 in 10.0 mi South 9.2 mph - N/A   Partly Cloudy
1:55 PM 78.8 °F - 62.6 °F 57% 29.98 in 9.0 mi SSW 5.8 mph - N/A   Partly Cloudy
2:15 PM 77.0 °F - 62.6 °F 61% 29.98 in 10.0 mi SSE 5.8 mph - N/A   Clear
2:35 PM 78.8 °F - 62.6 °F 57% 29.97 in 10.0 mi WSW 4.6 mph - N/A   Partly Cloudy
2:55 PM 78.8 °F - 60.8 °F 54% 29.96 in 9.0 mi South 4.6 mph - N/A   Partly Cloudy
3:15 PM 78.8 °F - 62.6 °F 57% 29.95 in 9.0 mi SSE 5.8 mph - N/A   Clear
3:35 PM 78.8 °F - 60.8 °F 54% 29.95 in 10.0 mi Calm Calm - N/A   Partly Cloudy
3:55 PM 78.8 °F - 62.6 °F 57% 29.94 in 9.0 mi South 3.5 mph - N/A   Partly Cloudy
4:15 PM 78.8 °F - 60.8 °F 54% 29.93 in 10.0 mi SSE 3.5 mph - N/A   Partly Cloudy
4:35 PM 78.8 °F - 62.6 °F 57% 29.92 in 10.0 mi Calm Calm - N/A   Scattered Clouds
4:55 PM 78.8 °F - 62.6 °F 57% 29.92 in 10.0 mi Calm Calm - N/A   Scattered Clouds
5:15 PM 80.6 °F 81.8 °F 62.6 °F 54% 29.92 in 10.0 mi SSW 4.6 mph - N/A   Mostly Cloudy
5:35 PM 78.8 °F - 62.6 °F 57% 29.92 in 9.0 mi South 5.8 mph - N/A   Mostly Cloudy
5:55 PM 78.8 °F - 62.6 °F 57% 29.92 in 10.0 mi Calm Calm - N/A   Scattered Clouds
6:15 PM 71.6 °F - 60.8 °F 69% 29.93 in 9.0 mi NW 8.1 mph 18.4 mph N/A   Mostly Cloudy
6:35 PM 68.0 °F - 59.0 °F 73% 29.94 in 10.0 mi WNW 8.1 mph - N/A   Mostly Cloudy
6:55 PM 66.2 °F - 57.2 °F 73% 29.95 in 10.0 mi NW 8.1 mph - N/A   Mostly Cloudy
7:15 PM 64.4 °F - 55.4 °F 73% 29.96 in 10.0 mi NW 9.2 mph 16.1 mph N/A   Mostly Cloudy
7:35 PM 62.6 °F - 55.4 °F 77% 29.97 in 10.0 mi NW 9.2 mph - N/A   Mostly Cloudy
7:55 PM 60.8 °F - 53.6 °F 77% 29.98 in 10.0 mi NW 6.9 mph - N/A   Mostly Cloudy
8:15 PM 60.8 °F - 53.6 °F 77% 29.99 in 10.0 mi NNW 10.4 mph - N/A   Overcast
8:35 PM 59.0 °F - 53.6 °F 82% 30.00 in 10.0 mi NW 8.1 mph - N/A   Mostly Cloudy
8:55 PM 57.2 °F - 51.8 °F 82% 30.01 in 10.0 mi NW 5.8 mph - N/A   Light Drizzle
9:15 PM 57.2 °F - 51.8 °F 82% 30.03 in 10.0 mi NW 6.9 mph - N/A   Overcast
9:35 PM 57.2 °F - 51.8 °F 82% 30.04 in 10.0 mi NW 6.9 mph - N/A   Overcast
9:55 PM 57.2 °F - 51.8 °F 82% 30.05 in 10.0 mi NNW 8.1 mph - N/A   Overcast
10:15 PM 55.4 °F - 50.0 °F 82% 30.05 in 10.0 mi NNW 8.1 mph - N/A   Overcast
10:35 PM 55.4 °F - 50.0 °F 82% 30.06 in 10.0 mi NNW 9.2 mph - N/A   Overcast
10:55 PM 55.4 °F - 50.0 °F 82% 30.07 in 10.0 mi NNW 3.5 mph - N/A   Overcast
11:15 PM 55.4 °F - 48.2 °F 77% 30.08 in 10.0 mi NNW 8.1 mph - N/A   Overcast
11:35 PM 53.6 °F - 48.2 °F 82% 30.09 in 9.0 mi NNW 9.2 mph - N/A   Overcast
11:55 PM 53.6 °F - 48.2 °F 82% 30.10 in 10.0 mi NW 8.1 mph - N/A   Overcast